Weather Roundup
Issued by NWS Corpus Christi, TX

Home | Current Version | Previous Version | Text Only | Print | Product List | Glossary On
Versions: 1 2 3 4 5 6 7 8 9 10 11 12 13 14 15 16 17 18 19 20 21 22 23 24 25 26 27 28 29 30 31 32 33 34 35 36 37 38 39 40 41 42 43 44 45 46 47 48 49 50
000
ASUS44 KCRP 051910
HRRCRP

SOUTH TEXAS REGIONAL WEATHER ROUNDUP
NATIONAL WEATHER SERVICE CORPUS CHRISTI TX
200 PM CDT TUE MAY 05 2015


TXZ229>244-052000-
...CORPUS CHRISTI AREA OBSERVATIONS...

CITY           SKY/WX    TMP DP  RH WIND       PRES   REMARKS
CORPUS CHRISTI PTSUNNY   83  70  64 SE29G36   29.93F
NAS CORPUS CHR PTSUNNY   81  72  74 SE23G30   29.94F
ROCKPORT       MOSUNNY   85  71  63 SE18      29.96F HX  90
KINGSVILLE NAS CLOUDY    83  73  72 SE23G32   29.92F
ALICE          CLOUDY    82  69  64 SE20G29   29.91F
FALFURRIAS     CLOUDY    81  70  70 SE12G18   29.90F
$$

...VICTORIA AREA OBSERVATIONS...

CITY           SKY/WX    TMP DP  RH WIND       PRES   REMARKS
VICTORIA       MOSUNNY   85  68  56 S21G32    29.97F
BEEVILLE       CLOUDY    83  68  61 SE17G25   29.94S
PLEASANTON     RAIN      78  65  63 E10       29.94F
SAN ANTONIO    CLOUDY    79  64  60 SE18G26   29.95F
$$

...LAREDO AREA OBSERVATIONS...

CITY           SKY/WX    TMP DP  RH WIND       PRES   REMARKS
LAREDO         LGT RAIN  75  73  93 S8        29.91F FOG
COTULLA        LGT RAIN  73  68  84 SE15      29.92S
DEL RIO        CLOUDY    75  67  76 SE20G26   29.87F
MCALLEN        CLOUDY    85  71  63 SE22G29   29.88F HX  90
HEBBRONVILLE     N/A     77  70  78 E13       29.91F
$$

...OTHER TEXAS OBSERVATIONS...

CITY           SKY/WX    TMP DP  RH WIND       PRES   REMARKS
BROWNSVILLE    PTSUNNY   83  71  67 SE20G30   29.91F
HOUSTON        PTSUNNY   81  69  67 SE26G36   30.02F
COL. STATION   PTSUNNY   84  64  50 S21G29    29.98F
AUSTIN         CLOUDY    80  65  59 S13G22    29.96F
WACO           LGT RAIN  82  64  54 S18G25    29.97F
FORT WORTH     PTSUNNY   78  65  63 S21G29    29.96F
WICHITA FALLS  TSTM      64  63  96 NE13      29.94F VSB 1
LUBBOCK        PTSUNNY   67  58  72 S15       29.89F
EL PASO        MOSUNNY   73  36  25 W22G29    29.94F
$$

...MARINE OBSERVATIONS...

STATION/POSITION TIME  SKY/WX   TEMP    WIND        PRES    VSBY  WAVE   SWELL
                                AIR SEA DIR/SP/G                  HT/PER HT/PER
                 (UTC)          (F)     (DEG/KT/KT) (MB)    (MI)  (FT/S) (FT/S)
PORT ARANSAS     1900            76 77  110/ 15/ 17 1015.0F
BUOY 90 E PORT A 1850            77 75  120/ 14/ 16 1015.9F         5/ 6   3/ 8
BUOY 45 SE BAFFI 1850            76 76  130/ 16/ 17 1013.8F         4/ 6   2/ 9
BUOY 200 E PT IS 1850            78 77  120/ 17/ 21 1015.3F         6/ 8
BUOY 15 E GALVES 1850            76 75  120/ 17/ 21 1016.8F         5/ 8   2/ 8
$$


USA.gov is the U.S. government's official web portal to all federal, state and local government web resources and services.